This demonstration page uses our WeatherBlox Daily Observations layout. Learn more.

Left ArrowRight Arrow

Hourly Observations for January 13, 2017

Temp ( °F °C ) Dew Point ( °F °C ) Humidity (%) Winds ( mph kmh ) Pressure ( in mb ) Visibility ( mi km ) Precip ( " mm )
12:17 am 00:17 Mostly Cloudy 55 13 52 11 88 88 E 10 17 30.03 1017 8 13 0.00 0.00
12:53 am 00:53 Cloudy 55 12.8 53 11.7 93 93 E 9 15 29.99 1016 8 13 0.00 0.00
1:27 am 01:27 Partly Cloudy 56 13.3 53 11.7 90 90 E 10 17 30.03 1017 7 11 0.00 0.00
1:51 am 01:51 Mostly Cloudy 55 13 54 12 94 94 E 12 19 30.06 1018 7 11 0.00 0.00
1:53 am 01:53 Mostly Cloudy 55 12.8 53 11.7 93 93 E 10 17 29.99 1016 7 11 0.00 0.00
2:53 am 02:53 Mostly Cloudy 56 13.3 53 11.7 90 90 E 12 19 30.00 1016 7 11 0.00 0.00
3:53 am 03:53 Cloudy 52 11.1 43 6.1 72 72 ENE 14 22 30.01 1016 10 16 0.00 0.00
4:17 am 04:17 Cloudy 51 10.6 41 5 69 69 ENE 12 19 30.12 1020 10 16 0.00 0.00
4:53 am 04:53 Cloudy 51 10.6 40 4.4 66 66 ENE 13 20 30.04 1017 10 16 0.00 0.00
5:13 am 05:13 Cloudy 51 10.6 40 4.4 66 66 ENE 10 17 30.12 1020 10 16 0.00 0.00
5:53 am 05:53 Cloudy 51 10.6 42 5.6 71 71 E 12 19 30.06 1018 10 16 0.00 0.00
6:53 am 06:53 Cloudy 49 9.4 38 3.3 66 66 ENE 10 17 30.09 1019 10 16 0.00 0.00
7:53 am 07:53 Cloudy 49 9.4 37 2.8 64 64 NE 9 15 30.13 1020 10 16 0.00 0.00
8:53 am 08:53 Cloudy 49 9.4 36 2.2 61 61 NE 10 17 30.16 1021 10 16 0.00 0.00
9:53 am 09:53 Cloudy 48 8.9 34 1.1 58 58 NE 12 19 30.21 1023 10 16 0.00 0.00
10:17 am 10:17 Cloudy 48 9 32 0 54 54 NNE 14 22 30.27 1025 10 16 0.00 0.00
10:53 am 10:53 Cloudy 48 8.9 31 -0.6 52 52 NNE 16 26 30.23 1024 10 16 0.00 0.00
11:53 am 11:53 Cloudy 49 9.4 33 0.6 55 55 NNE 15 24 30.24 1024 10 16 0.00 0.00
12:53 pm 12:53 Cloudy 47 8.3 34 1.1 61 61 NNE 15 24 30.22 1023 8 13 0.00 0.00
1:53 pm 13:53 Cloudy 49 9.4 35 1.7 59 59 NNE 14 22 30.19 1022 8 13 0.00 0.00
2:38 pm 14:38 Partly Cloudy 48 9 36 2 62 62 NNE 15 24 30.24 1024 8 13 0.00 0.00
2:53 pm 14:53 Sunny 49 9.4 36 2.2 61 61 NE 14 22 30.18 1022 8 13 0.00 0.00
3:53 pm 15:53 Sunny 49 9.4 37 2.8 64 64 NNE 15 24 30.20 1023 7 11 0.00 0.00
4:53 pm 16:53 Sunny 47 8.3 36 2.2 66 66 NNE 12 19 30.22 1023 8 13 0.00 0.00
5:53 pm 17:53 Partly Cloudy 45 7.2 36 2.2 71 71 NE 12 19 30.23 1024 8 13 0.00 0.00
6:53 pm 18:53 Clear 43 6.1 36 2.2 76 76 NE 13 20 30.26 1025 8 13 0.00 0.00
7:53 pm 19:53 Mostly Cloudy 43 6.1 36 2.2 76 76 NE 12 19 30.27 1025 8 13 0.00 0.00
8:53 pm 20:53 Mostly Cloudy 42 5.6 36 2.2 79 79 NE 9 15 30.28 1026 8 13 0.00 0.00
9:44 pm 21:44 Cloudy 43 6 36 2 76 76 NE 7 11 30.36 1028 8 13 0.00 0.00
9:53 pm 21:53 Cloudy 42 5.6 35 1.7 76 76 NE 8 13 30.30 1026 8 13 0.00 0.00
10:53 pm 22:53 Cloudy 41 5 34 1.1 76 76 NE 7 11 30.30 1026 9 14 0.00 0.00
11:53 pm 23:53 Cloudy 41 5 33 0.6 73 73 NE 9 15 30.30 1026 10 16 0.00 0.00

Powered by AerisWeather